Torna al catalogo

ARIANE 42L R/B

AttivoGTO
NORAD 27299·ROCKET BODY·🇫🇷 France

Lanciato Jan 23, 2002 da Guiana Space Centre

Loading…

TLE

In scadenzaSource: Space-Track

Epoca: Sep 14, 2026, 13:22 UTC

1 27299U 02002B   26257.55745250  .00000222  00000-0  11699-2 0  9992
2 27299   4.2264  51.6553 7249964 193.9985 122.7754  2.22289729198783

Traccia ARIANE 42L R/B in tempo reale con AllMySat

Download on the App Store